| time (UTC) | temp C | wind direction | speed KPH | gust KPH | rain 1hr cm | rain 24hr cm | rain mn cm | humidity % | barometer mb |
| 20260506015036 | -1 | 143 | 0.0 | 6.4 | 0.00 | 0.33 | 0.00 | 85 | 1009.6 |
| 20260506014541 | -1 | 0 | 0.0 | 4.8 | 0.00 | 0.33 | 0.00 | 85 | 1009.6 |
| 20260506014029 | -1 | 331 | 0.0 | 4.8 | 0.00 | 0.33 | 0.00 | 84 | 1009.6 |
| 20260506013531 | -1 | 141 | 1.6 | 6.4 | 0.00 | 0.33 | 0.00 | 84 | 1009.6 |
| 20260506013044 | 0 | 160 | 1.6 | 8.0 | 0.00 | 0.33 | 0.00 | 84 | 1009.6 |
| 20260506012531 | 0 | 169 | 1.6 | 8.0 | 0.00 | 0.33 | 0.00 | 84 | 1009.6 |
| 20260506012029 | 0 | 150 | 1.6 | 6.4 | 0.00 | 0.33 | 0.00 | 84 | 1009.5 |
| 20260506011555 | 0 | 185 | 1.6 | 9.7 | 0.00 | 0.33 | 0.00 | 84 | 1009.6 |
| 20260506011030 | 0 | 97 | 3.2 | 9.7 | 0.00 | 0.33 | 0.00 | 84 | 1009.5 |
| 20260506010532 | -1 | 87 | 1.6 | 9.7 | 0.00 | 0.33 | 0.00 | 84 | 1009.6 |
| 20260506010046 | -1 | 137 | 1.6 | 9.7 | 0.00 | 0.33 | 0.00 | 84 | 1009.5 |
| 20260506005531 | -1 | 143 | 1.6 | 6.4 | 0.00 | 0.33 | 0.00 | 85 | 1009.6 |
| 20260506005032 | -1 | 134 | 1.6 | 6.4 | 0.00 | 0.33 | 0.00 | 85 | 1009.5 |
| 20260506004547 | -1 | 148 | 1.6 | 6.4 | 0.00 | 0.33 | 0.00 | 85 | 1009.5 |
| 20260506004031 | -1 | 224 | 1.6 | 4.8 | 0.00 | 0.33 | 0.00 | 86 | 1009.5 |
| 20260506003532 | -1 | 160 | 0.0 | 3.2 | 0.00 | 0.33 | 0.00 | 86 | 1009.5 |
| 20260506003048 | -1 | 0 | 0.0 | 3.2 | 0.00 | 0.33 | 0.00 | 86 | 1009.5 |
| 20260506002532 | -1 | 0 | 1.6 | 6.4 | 0.00 | 0.33 | 0.00 | 86 | 1009.6 |
| 20260506002033 | -1 | 126 | 0.0 | 6.4 | 0.00 | 0.33 | 0.00 | 85 | 1009.7 |
| 20260506001549 | -1 | 0 | 0.0 | 6.4 | 0.00 | 0.33 | 0.00 | 85 | 1009.6 |
| 20260506001031 | -1 | 0 | 0.0 | 3.2 | 0.00 | 0.33 | 0.00 | 85 | 1009.6 |
| 20260506000532 | -1 | 125 | 1.6 | 4.8 | 0.00 | 0.33 | 0.00 | 85 | 1009.6 |
| 20260506000048 | -1 | 131 | 0.0 | 6.4 | 0.00 | 0.33 | 0.00 | 86 | 1009.5 |
| 20260505235530 | -1 | 144 | 0.0 | 6.4 | 0.00 | 0.33 | 0.00 | 86 | 1009.7 |
| 20260505235030 | 0 | 161 | 1.6 | 8.0 | 0.00 | 0.33 | 0.00 | 86 | 1009.6 |
| 20260505234543 | 0 | 159 | 0.0 | 8.0 | 0.00 | 0.33 | 0.00 | 86 | 1009.5 |
| 20260505234031 | -1 | 327 | 0.0 | 6.4 | 0.00 | 0.33 | 0.00 | 86 | 1009.5 |
| 20260505233531 | -1 | 282 | 0.0 | 6.4 | 0.00 | 0.33 | 0.00 | 86 | 1009.3 |
| 20260505233044 | -1 | 236 | 0.0 | 8.0 | 0.00 | 0.33 | 0.00 | 86 | 1009.3 |
| 20260505232532 | -1 | 150 | 0.0 | 8.0 | 0.00 | 0.33 | 0.00 | 86 | 1009.3 |
| 20260505232031 | -1 | 110 | 1.6 | 8.0 | 0.00 | 0.33 | 0.00 | 87 | 1009.4 |
| 20260505231603 | -1 | 165 | 0.0 | 11.3 | 0.00 | 0.33 | 0.00 | 86 | 1009.3 |
| 20260505231030 | -1 | 0 | 0.0 | 11.3 | 0.00 | 0.33 | 0.00 | 86 | 1009.3 |
| 20260505230530 | -1 | 162 | 0.0 | 4.8 | 0.00 | 0.33 | 0.00 | 85 | 1009.3 |
| 20260505230044 | -1 | 172 | 0.0 | 4.8 | 0.00 | 0.33 | 0.00 | 85 | 1009.3 |
| 20260505225531 | -1 | 114 | 0.0 | 4.8 | 0.00 | 0.33 | 0.00 | 85 | 1009.4 |
| 20260505225030 | 0 | 0 | 1.6 | 4.8 | 0.00 | 0.33 | 0.00 | 85 | 1009.4 |
| 20260505224543 | 0 | 0 | 0.0 | 6.4 | 0.00 | 0.33 | 0.00 | 85 | 1009.3 |
| 20260505224031 | 0 | 134 | 0.0 | 6.4 | 0.00 | 0.33 | 0.00 | 85 | 1009.4 |
| 20260505223531 | 0 | 240 | 1.6 | 6.4 | 0.00 | 0.33 | 0.00 | 85 | 1009.4 |
| 20260505223041 | 0 | 242 | 0.0 | 6.4 | 0.00 | 0.33 | 0.00 | 84 | 1009.4 |
| 20260505222530 | 0 | 0 | 1.6 | 6.4 | 0.00 | 0.33 | 0.00 | 85 | 1009.4 |
| 20260505222031 | 0 | 139 | 1.6 | 8.0 | 0.00 | 0.33 | 0.00 | 85 | 1009.5 |
| 20260505221548 | 0 | 0 | 0.0 | 8.0 | 0.00 | 0.33 | 0.00 | 85 | 1009.5 |
| 20260505221030 | 0 | 0 | 1.6 | 6.4 | 0.00 | 0.33 | 0.00 | 85 | 1009.4 |
| 20260505220531 | 0 | 167 | 0.0 | 6.4 | 0.00 | 0.33 | 0.00 | 85 | 1009.5 |
| 20260505220051 | 0 | 0 | 1.6 | 6.4 | 0.00 | 0.33 | 0.00 | 85 | 1009.5 |
| 20260505215531 | 0 | 146 | 0.0 | 4.8 | 0.00 | 0.33 | 0.33 | 85 | 1009.4 |
| 20260505215031 | 0 | 145 | 0.0 | 4.8 | 0.00 | 0.33 | 0.33 | 85 | 1009.5 |
| 20260505214554 | 0 | 146 | 0.0 | 4.8 | 0.00 | 0.33 | 0.33 | 86 | 1009.5 |
| 20260505214030 | 0 | 147 | 0.0 | 4.8 | 0.00 | 0.33 | 0.33 | 86 | 1009.5 |
| 20260505213530 | 0 | 0 | 0.0 | 9.7 | 0.00 | 0.33 | 0.33 | 86 | 1009.4 |
| 20260505213049 | 0 | 0 | 1.6 | 9.7 | 0.00 | 0.33 | 0.33 | 86 | 1009.2 |
| 20260505212531 | 0 | 0 | 0.0 | 3.2 | 0.00 | 0.33 | 0.33 | 86 | 1009.2 |
| 20260505212033 | 0 | 128 | 0.0 | 3.2 | 0.00 | 0.33 | 0.33 | 86 | 1009.2 |
| 20260505211545 | 0 | 0 | 0.0 | 4.8 | 0.00 | 0.33 | 0.33 | 85 | 1009.2 |
| 20260505211030 | 0 | 0 | 0.0 | 4.8 | 0.00 | 0.33 | 0.33 | 85 | 1009.2 |
| 20260505210532 | 0 | 0 | 0.0 | 4.8 | 0.00 | 0.33 | 0.33 | 85 | 1009.3 |
| 20260505210046 | 0 | 0 | 0.0 | 6.4 | 0.00 | 0.33 | 0.33 | 84 | 1009.3 |
| 20260505205531 | 0 | 0 | 0.0 | 6.4 | 0.00 | 0.33 | 0.33 | 84 | 1009.1 |
| 20260505205029 | 0 | 246 | 0.0 | 4.8 | 0.00 | 0.33 | 0.33 | 84 | 1009.1 |
| 20260505204544 | 0 | 0 | 0.0 | 4.8 | 0.00 | 0.33 | 0.33 | 84 | 1009.1 |
| 20260505204032 | 0 | 0 | 0.0 | 1.6 | 0.00 | 0.33 | 0.33 | 84 | 1009.1 |
| 20260505203532 | 0 | 0 | 0.0 | 1.6 | 0.00 | 0.33 | 0.33 | 84 | 1009.1 |
| 20260505203101 | 0 | 134 | 0.0 | 3.2 | 0.00 | 0.33 | 0.33 | 83 | 1009.1 |
| 20260505202532 | 0 | 0 | 0.0 | 3.2 | 0.00 | 0.33 | 0.33 | 83 | 1009.1 |
| 20260505202030 | 0 | 0 | 0.0 | 3.2 | 0.00 | 0.33 | 0.33 | 83 | 1009.0 |
| 20260505201547 | 0 | 0 | 0.0 | 1.6 | 0.00 | 0.33 | 0.33 | 83 | 1009.1 |
| 20260505201034 | 0 | 0 | 0.0 | 3.2 | 0.00 | 0.33 | 0.33 | 83 | 1009.1 |
| 20260505200532 | 0 | 0 | 0.0 | 3.2 | 0.00 | 0.33 | 0.33 | 83 | 1009.0 |
| 20260505200049 | 0 | 0 | 0.0 | 3.2 | 0.00 | 0.33 | 0.33 | 83 | 1009.0 |
| 20260505195530 | 0 | 0 | 0.0 | 4.8 | 0.00 | 0.33 | 0.33 | 82 | 1009.1 |
| 20260505195030 | 0 | 0 | 0.0 | 4.8 | 0.00 | 0.33 | 0.33 | 82 | 1009.0 |
| 20260505194543 | 0 | 144 | 0.0 | 3.2 | 0.00 | 0.33 | 0.33 | 82 | 1009.1 |
| 20260505194031 | 0 | 0 | 0.0 | 3.2 | 0.00 | 0.33 | 0.33 | 83 | 1009.0 |
| 20260505193530 | 0 | 300 | 0.0 | 3.2 | 0.00 | 0.33 | 0.33 | 84 | 1008.9 |
| 20260505193038 | 1 | 0 | 0.0 | 4.8 | 0.00 | 0.33 | 0.33 | 84 | 1008.9 |
| 20260505192530 | 1 | 0 | 0.0 | 9.7 | 0.00 | 0.33 | 0.33 | 83 | 1008.8 |
| 20260505192030 | 1 | 134 | 1.6 | 9.7 | 0.00 | 0.33 | 0.33 | 83 | 1008.8 |
| 20260505191541 | 1 | 344 | 1.6 | 8.0 | 0.00 | 0.33 | 0.33 | 82 | 1008.9 |
| 20260505191030 | 1 | 104 | 1.6 | 8.0 | 0.00 | 0.33 | 0.33 | 82 | 1008.8 |
| 20260505190530 | 1 | 160 | 0.0 | 8.0 | 0.00 | 0.33 | 0.33 | 82 | 1008.8 |
| 20260505190046 | 1 | 101 | 3.2 | 8.0 | 0.00 | 0.33 | 0.33 | 83 | 1008.7 |
| 20260505185530 | 1 | 122 | 1.6 | 6.4 | 0.00 | 0.33 | 0.33 | 83 | 1008.6 |
| 20260505185031 | 1 | 0 | 0.0 | 6.4 | 0.00 | 0.33 | 0.33 | 84 | 1008.7 |
| 20260505184543 | 1 | 36 | 1.6 | 11.3 | 0.00 | 0.33 | 0.33 | 84 | 1008.7 |
| 20260505184034 | 1 | 62 | 1.6 | 11.3 | 0.00 | 0.33 | 0.33 | 84 | 1008.8 |
| 20260505183530 | 1 | 94 | 3.2 | 8.0 | 0.00 | 0.33 | 0.33 | 84 | 1008.8 |
| 20260505183043 | 1 | 32 | 0.0 | 4.8 | 0.00 | 0.33 | 0.33 | 85 | 1008.8 |
| 20260505182529 | 1 | 150 | 0.0 | 4.8 | 0.00 | 0.33 | 0.33 | 84 | 1008.8 |
| 20260505182030 | 1 | 0 | 0.0 | 9.7 | 0.00 | 0.33 | 0.33 | 84 | 1008.9 |
| 20260505181544 | 1 | 59 | 1.6 | 9.7 | 0.00 | 0.33 | 0.33 | 83 | 1008.9 |
| 20260505181031 | 1 | 0 | 0.0 | 6.4 | 0.00 | 0.33 | 0.33 | 82 | 1008.8 |
| 20260505180532 | 1 | 0 | 0.0 | 9.7 | 0.00 | 0.33 | 0.33 | 81 | 1008.7 |
| 20260505180040 | 1 | 0 | 0.0 | 9.7 | 0.00 | 0.33 | 0.33 | 80 | 1008.6 |
| 20260505175531 | 1 | 0 | 0.0 | 4.8 | 0.00 | 0.33 | 0.33 | 80 | 1008.6 |
| 20260505175030 | 1 | 0 | 0.0 | 3.2 | 0.00 | 0.33 | 0.33 | 79 | 1008.7 |
| 20260505174545 | 1 | 0 | 0.0 | 3.2 | 0.00 | 0.33 | 0.33 | 79 | 1008.6 |
| 20260505174031 | 1 | 0 | 0.0 | 6.4 | 0.00 | 0.33 | 0.33 | 78 | 1008.7 |
| 20260505173531 | 1 | 0 | 1.6 | 6.4 | 0.00 | 0.33 | 0.33 | 78 | 1008.7 |
| 20260505173043 | 2 | 141 | 1.6 | 8.0 | 0.00 | 0.33 | 0.33 | 77 | 1008.6 |
| 20260505172530 | 2 | 0 | 3.2 | 9.7 | 0.00 | 0.33 | 0.33 | 77 | 1008.5 |
| 20260505172031 | 2 | 0 | 0.0 | 9.7 | 0.00 | 0.33 | 0.33 | 77 | 1008.5 |
| 20260505171544 | 2 | 0 | 1.6 | 6.4 | 0.00 | 0.33 | 0.33 | 77 | 1008.4 |
| 20260505171031 | 2 | 110 | 1.6 | 11.3 | 0.03 | 0.33 | 0.33 | 77 | 1008.3 |
| 20260505170530 | 2 | 0 | 1.6 | 11.3 | 0.03 | 0.33 | 0.33 | 78 | 1008.4 |
| 20260505165530 | 2 | 224 | 0.0 | 4.8 | 0.03 | 0.33 | 0.33 | 80 | 1008.2 |
| 20260505165030 | 2 | 356 | 0.0 | 8.0 | 0.03 | 0.33 | 0.33 | 78 | 1008.2 |
| 20260505164544 | 2 | 0 | 0.0 | 11.3 | 0.03 | 0.33 | 0.33 | 78 | 1008.4 |
| 20260505164030 | 2 | 131 | 1.6 | 11.3 | 0.03 | 0.33 | 0.33 | 78 | 1008.2 |
| 20260505163531 | 2 | 143 | 3.2 | 9.7 | 0.03 | 0.33 | 0.33 | 78 | 1008.2 |
| 20260505163043 | 2 | 0 | 1.6 | 9.7 | 0.03 | 0.33 | 0.33 | 78 | 1008.3 |
| 20260505162533 | 2 | 0 | 1.6 | 9.7 | 0.03 | 0.33 | 0.33 | 78 | 1008.3 |
| 20260505162030 | 2 | 342 | 1.6 | 12.9 | 0.03 | 0.33 | 0.33 | 79 | 1008.2 |
| 20260505161540 | 2 | 41 | 3.2 | 12.9 | 0.03 | 0.33 | 0.33 | 80 | 1008.3 |
| 20260505161030 | 2 | 257 | 1.6 | 8.0 | 0.00 | 0.30 | 0.30 | 81 | 1008.3 |
| 20260505160529 | 2 | 319 | 0.0 | 8.0 | 0.00 | 0.30 | 0.30 | 81 | 1008.2 |
| 20260505153047 | 1 | 103 | 6.4 | 16.1 | 0.00 | 0.30 | 0.30 | 84 | 1008.4 |
| 20260505152532 | 1 | 127 | 6.4 | 16.1 | 0.00 | 0.30 | 0.30 | 83 | 1008.2 |
| 20260505152030 | 2 | 6 | 3.2 | 14.5 | 0.00 | 0.30 | 0.30 | 81 | 1008.1 |
| 20260505151557 | 2 | 13 | 4.8 | 14.5 | 0.00 | 0.30 | 0.30 | 78 | 1008.3 |
| 20260505151031 | 3 | 345 | 0.0 | 6.4 | 0.03 | 0.30 | 0.30 | 78 | 1008.3 |
| 20260505150531 | 3 | 152 | 0.0 | 6.4 | 0.03 | 0.30 | 0.30 | 79 | 1008.3 |
| 20260505140531 | 2 | 3 | 3.2 | 12.9 | 0.00 | 0.28 | 0.28 | 76 | 1007.9 |
| 20260505125030 | 3 | 150 | 1.6 | 9.7 | 0.00 | 0.28 | 0.28 | 69 | 1007.8 |
| 20260505124556 | 3 | 0 | 3.2 | 9.7 | 0.03 | 0.28 | 0.28 | 71 | 1007.8 |
| 20260505124030 | 3 | 0 | 1.6 | 4.8 | 0.03 | 0.28 | 0.28 | 72 | 1007.7 |
| 20260505123528 | 3 | 106 | 1.6 | 8.0 | 0.03 | 0.28 | 0.28 | 71 | 1007.6 |
| 20260505123055 | 3 | 86 | 0.0 | 8.0 | 0.03 | 0.28 | 0.28 | 70 | 1007.8 |
| 20260505122531 | 3 | 94 | 1.6 | 8.0 | 0.03 | 0.28 | 0.28 | 70 | 1007.7 |
| 20260505122031 | 3 | 25 | 1.6 | 14.5 | 0.03 | 0.28 | 0.28 | 68 | 1007.7 |
| 20260505121553 | 3 | 255 | 0.0 | 14.5 | 0.03 | 0.28 | 0.28 | 69 | 1007.6 |
| 20260505121031 | 3 | 163 | 3.2 | 14.5 | 0.03 | 0.28 | 0.28 | 66 | 1007.7 |
| 20260505120530 | 3 | 177 | 3.2 | 8.0 | 0.03 | 0.28 | 0.28 | 66 | 1007.6 |
| 20260505120053 | 3 | 128 | 3.2 | 11.3 | 0.03 | 0.28 | 0.28 | 68 | 1007.6 |
| 20260505115533 | 3 | 156 | 3.2 | 11.3 | 0.03 | 0.28 | 0.28 | 71 | 1007.5 |
| 20260505115031 | 3 | 133 | 1.6 | 14.5 | 0.03 | 0.28 | 0.28 | 73 | 1007.5 |
| 20260505114545 | 3 | 116 | 3.2 | 14.5 | 0.00 | 0.25 | 0.25 | 72 | 1007.6 |
| 20260505114029 | 3 | 112 | 4.8 | 16.1 | 0.00 | 0.25 | 0.25 | 71 | 1007.6 |
| 20260505113530 | 3 | 174 | 4.8 | 17.7 | 0.00 | 0.25 | 0.25 | 74 | 1007.5 |
| 20260505113043 | 3 | 71 | 3.2 | 17.7 | 0.00 | 0.25 | 0.25 | 76 | 1007.5 |
| 20260505112531 | 2 | 61 | 6.4 | 17.7 | 0.00 | 0.25 | 0.25 | 79 | 1007.4 |
| 20260505112031 | 2 | 336 | 3.2 | 12.9 | 0.00 | 0.25 | 0.25 | 81 | 1007.5 |
| 20260505111545 | 1 | 177 | 1.6 | 12.9 | 0.00 | 0.25 | 0.25 | 78 | 1007.6 |
| 20260505111035 | 2 | 142 | 4.8 | 12.9 | 0.00 | 0.25 | 0.25 | 77 | 1007.7 |
| 20260505110531 | 3 | 239 | 1.6 | 12.9 | 0.00 | 0.25 | 0.25 | 75 | 1007.6 |
| 20260505102030 | 4 | 148 | 3.2 | 19.3 | 0.00 | 0.28 | 0.25 | 65 | 1007.0 |
| 20260505101553 | 4 | 314 | 4.8 | 19.3 | 0.00 | 0.28 | 0.25 | 66 | 1007.1 |
| 20260505101031 | 4 | 219 | 3.2 | 16.1 | 0.00 | 0.28 | 0.25 | 68 | 1007.1 |
| 20260505100536 | 3 | 191 | 4.8 | 16.1 | 0.00 | 0.28 | 0.25 | 68 | 1007.1 |
| 20260505100053 | 3 | 151 | 4.8 | 16.1 | 0.03 | 0.28 | 0.25 | 67 | 1007.1 |
| 20260505095530 | 3 | 107 | 3.2 | 12.9 | 0.03 | 0.28 | 0.25 | 65 | 1007.0 |
| 20260505095030 | 3 | 141 | 3.2 | 12.9 | 0.03 | 0.28 | 0.25 | 66 | 1007.0 |
| 20260505094549 | 4 | 74 | 3.2 | 12.9 | 0.03 | 0.28 | 0.25 | 65 | 1006.9 |
| 20260505094030 | 4 | 239 | 4.8 | 12.9 | 0.03 | 0.28 | 0.25 | 66 | 1006.8 |
| 20260505093530 | 3 | 90 | 4.8 | 17.7 | 0.03 | 0.28 | 0.25 | 70 | 1006.9 |
| 20260505093048 | 3 | 271 | 6.4 | 17.7 | 0.03 | 0.28 | 0.25 | 69 | 1006.8 |
| 20260505092531 | 3 | 106 | 8.0 | 16.1 | 0.03 | 0.28 | 0.25 | 69 | 1006.8 |
| 20260505092031 | 3 | 141 | 4.8 | 14.5 | 0.03 | 0.28 | 0.25 | 68 | 1006.7 |
| 20260505091544 | 3 | 94 | 3.2 | 12.9 | 0.03 | 0.28 | 0.25 | 72 | 1006.8 |
| 20260505091033 | 3 | 107 | 3.2 | 14.5 | 0.05 | 0.28 | 0.25 | 72 | 1006.7 |
| 20260505090530 | 3 | 14 | 3.2 | 14.5 | 0.05 | 0.28 | 0.25 | 73 | 1006.7 |
| 20260505090056 | 3 | 108 | 4.8 | 14.5 | 0.03 | 0.25 | 0.23 | 73 | 1006.7 |
| 20260505085530 | 3 | 82 | 3.2 | 8.0 | 0.05 | 0.25 | 0.23 | 74 | 1006.8 |
| 20260505085032 | 3 | 122 | 3.2 | 9.7 | 0.05 | 0.25 | 0.23 | 74 | 1006.6 |
| 20260505084549 | 3 | 107 | 3.2 | 11.3 | 0.05 | 0.25 | 0.23 | 74 | 1006.6 |
| 20260505084029 | 3 | 3 | 3.2 | 11.3 | 0.08 | 0.25 | 0.23 | 74 | 1006.5 |
| 20260505083529 | 3 | 250 | 4.8 | 12.9 | 0.08 | 0.25 | 0.23 | 73 | 1006.5 |
| 20260505083049 | 3 | 224 | 4.8 | 14.5 | 0.10 | 0.25 | 0.23 | 72 | 1006.4 |
| 20260505082530 | 3 | 117 | 6.4 | 16.1 | 0.10 | 0.25 | 0.23 | 73 | 1006.3 |
| 20260505082030 | 3 | 5 | 4.8 | 16.1 | 0.13 | 0.25 | 0.23 | 73 | 1006.2 |
| 20260505081548 | 3 | 195 | 8.0 | 17.7 | 0.10 | 0.23 | 0.20 | 73 | 1006.2 |
| 20260505081034 | 3 | 139 | 4.8 | 17.7 | 0.13 | 0.23 | 0.20 | 74 | 1006.2 |
| 20260505080530 | 3 | 93 | 4.8 | 11.3 | 0.13 | 0.23 | 0.20 | 73 | 1006.2 |
| 20260505080053 | 3 | 108 | 3.2 | 11.3 | 0.15 | 0.23 | 0.20 | 76 | 1006.2 |
| 20260505075532 | 3 | 150 | 3.2 | 11.3 | 0.13 | 0.23 | 0.18 | 76 | 1006.3 |
| 20260505075029 | 3 | 104 | 3.2 | 9.7 | 0.15 | 0.23 | 0.18 | 76 | 1006.2 |
| 20260505074548 | 3 | 97 | 3.2 | 9.7 | 0.15 | 0.23 | 0.18 | 76 | 1006.1 |
| 20260505074030 | 3 | 163 | 4.8 | 9.7 | 0.15 | 0.20 | 0.15 | 77 | 1006.2 |
| 20260505073530 | 3 | 150 | 1.6 | 9.7 | 0.15 | 0.20 | 0.15 | 77 | 1006.1 |
| 20260505073044 | 3 | 14 | 3.2 | 14.5 | 0.13 | 0.18 | 0.13 | 78 | 1006.1 |
| 20260505072531 | 2 | 33 | 3.2 | 22.5 | 0.13 | 0.18 | 0.13 | 77 | 1006.0 |
| 20260505072030 | 2 | 120 | 4.8 | 22.5 | 0.10 | 0.15 | 0.10 | 79 | 1006.0 |
| 20260505071546 | 2 | 63 | 3.2 | 12.9 | 0.10 | 0.15 | 0.10 | 81 | 1006.0 |
| 20260505071030 | 2 | 128 | 3.2 | 14.5 | 0.08 | 0.13 | 0.08 | 80 | 1006.1 |
| 20260505070535 | 2 | 169 | 3.2 | 14.5 | 0.08 | 0.13 | 0.08 | 81 | 1006.0 |
| 20260505070046 | 2 | 173 | 6.4 | 19.3 | 0.05 | 0.10 | 0.05 | 80 | 1006.0 |
| 20260505065531 | 2 | 210 | 4.8 | 19.3 | 0.05 | 0.10 | 0.05 | 81 | 1005.9 |
| 20260505065034 | 2 | 151 | 4.8 | 16.1 | 0.03 | 0.08 | 0.03 | 80 | 1005.8 |
| 20260505064541 | 2 | 83 | 4.8 | 17.7 | 0.03 | 0.08 | 0.03 | 80 | 1005.9 |
| 20260505064030 | 2 | 166 | 4.8 | 17.7 | 0.00 | 0.05 | 0.00 | 80 | 1005.9 |
| 20260505063530 | 2 | 130 | 4.8 | 19.3 | 0.00 | 0.05 | 0.00 | 81 | 1005.9 |
| 20260505063040 | 2 | 311 | 6.4 | 19.3 | 0.00 | 0.05 | 0.00 | 81 | 1005.9 |
| 20260505062533 | 2 | 74 | 3.2 | 9.7 | 0.00 | 0.05 | 0.00 | 81 | 1005.9 |
| 20260505062030 | 2 | 127 | 3.2 | 9.7 | 0.00 | 0.05 | 0.00 | 81 | 1005.8 |
| 20260505061548 | 1 | 127 | 3.2 | 9.7 | 0.00 | 0.05 | 0.00 | 82 | 1005.7 |
| 20260505061032 | 1 | 6 | 1.6 | 9.7 | 0.00 | 0.05 | 0.00 | 84 | 1005.7 |
| 20260505060530 | 1 | 159 | 3.2 | 9.7 | 0.00 | 0.05 | 0.00 | 85 | 1005.5 |
| 20260505060045 | 1 | 255 | 3.2 | 11.3 | 0.00 | 0.05 | 0.00 | 86 | 1005.5 |
| 20260505055533 | 0 | 113 | 3.2 | 11.3 | 0.00 | 0.15 | 0.00 | 87 | 1005.4 |
| 20260505055031 | 0 | 96 | 1.6 | 6.4 | 0.00 | 0.15 | 0.00 | 88 | 1005.3 |
| 20260505054545 | 0 | 0 | 0.0 | 6.4 | 0.00 | 0.15 | 0.00 | 88 | 1005.4 |
| 20260505054033 | 0 | 0 | 1.6 | 8.0 | 0.00 | 0.15 | 0.00 | 88 | 1005.4 |
| 20260505053531 | 0 | 146 | 1.6 | 12.9 | 0.00 | 0.15 | 0.00 | 87 | 1005.3 |
| 20260505053046 | 0 | 159 | 4.8 | 12.9 | 0.00 | 0.15 | 0.00 | 86 | 1005.5 |
| 20260505052531 | 1 | 37 | 0.0 | 8.0 | 0.00 | 0.15 | 0.00 | 86 | 1005.5 |
| 20260505052030 | 1 | 0 | 0.0 | 8.0 | 0.00 | 0.15 | 0.00 | 87 | 1005.4 |
| 20260505051540 | 1 | 127 | 1.6 | 6.4 | 0.00 | 0.15 | 0.00 | 88 | 1005.4 |
| 20260505051030 | 0 | 226 | 1.6 | 6.4 | 0.00 | 0.15 | 0.00 | 90 | 1005.4 |
| 20260505050534 | 0 | 203 | 0.0 | 3.2 | 0.00 | 0.15 | 0.00 | 91 | 1005.4 |
| 20260505041541 | 0 | 159 | 3.2 | 6.4 | 0.00 | 0.15 | 0.00 | 92 | 1005.2 |
| 20260505041029 | 0 | 140 | 1.6 | 6.4 | 0.00 | 0.15 | 0.00 | 92 | 1005.2 |
| 20260505040531 | 0 | 116 | 0.0 | 6.4 | 0.00 | 0.15 | 0.00 | 92 | 1005.1 |
| 20260505040049 | 0 | 136 | 1.6 | 6.4 | 0.00 | 0.15 | 0.00 | 92 | 1005.0 |
| 20260505035531 | 0 | 89 | 1.6 | 6.4 | 0.00 | 0.15 | 0.00 | 92 | 1005.0 |
| 20260505035030 | 0 | 154 | 1.6 | 4.8 | 0.00 | 0.15 | 0.00 | 92 | 1005.0 |
| 20260505034544 | 0 | 176 | 1.6 | 4.8 | 0.00 | 0.15 | 0.00 | 92 | 1004.9 |
| 20260505034030 | 0 | 134 | 0.0 | 4.8 | 0.00 | 0.15 | 0.00 | 92 | 1004.8 |
| 20260505033530 | 0 | 141 | 1.6 | 6.4 | 0.00 | 0.15 | 0.00 | 92 | 1004.8 |
| 20260505033104 | 0 | 150 | 3.2 | 6.4 | 0.00 | 0.15 | 0.00 | 92 | 1004.9 |
| 20260505032530 | -1 | 165 | 0.0 | 6.4 | 0.00 | 0.15 | 0.00 | 92 | 1004.8 |
| 20260505032029 | -1 | 114 | 0.0 | 6.4 | 0.00 | 0.15 | 0.00 | 91 | 1004.8 |
| 20260505031543 | -1 | 125 | 0.0 | 6.4 | 0.00 | 0.15 | 0.00 | 91 | 1004.8 |
| 20260505031032 | -1 | 0 | 1.6 | 6.4 | 0.00 | 0.15 | 0.00 | 91 | 1004.7 |
| 20260505030530 | -1 | 0 | 0.0 | 3.2 | 0.00 | 0.15 | 0.00 | 91 | 1004.7 |
| 20260505030043 | 0 | 215 | 1.6 | 3.2 | 0.00 | 0.15 | 0.00 | 91 | 1004.7 |
| 20260505025531 | 0 | 139 | 0.0 | 4.8 | 0.00 | 0.15 | 0.00 | 91 | 1004.7 |
| 20260505025030 | 0 | 0 | 0.0 | 4.8 | 0.00 | 0.15 | 0.00 | 91 | 1004.8 |
| 20260505024547 | 0 | 181 | 0.0 | 4.8 | 0.00 | 0.15 | 0.00 | 91 | 1004.8 |
| 20260505024030 | 0 | 141 | 0.0 | 6.4 | 0.00 | 0.15 | 0.00 | 91 | 1004.8 |
| 20260505023530 | 0 | 144 | 1.6 | 9.7 | 0.00 | 0.15 | 0.00 | 91 | 1004.9 |
| 20260505023058 | 0 | 155 | 1.6 | 9.7 | 0.00 | 0.15 | 0.00 | 91 | 1004.8 |
| 20260505022530 | 0 | 172 | 3.2 | 9.7 | 0.00 | 0.15 | 0.00 | 91 | 1004.8 |
| 20260505022029 | 0 | 153 | 3.2 | 9.7 | 0.00 | 0.15 | 0.00 | 92 | 1004.9 |
| 20260505021542 | 0 | 145 | 3.2 | 6.4 | 0.00 | 0.15 | 0.00 | 92 | 1004.9 |
| 20260505021033 | 0 | 142 | 1.6 | 6.4 | 0.00 | 0.15 | 0.00 | 92 | 1004.9 |
| 20260505020533 | 0 | 0 | 1.6 | 8.0 | 0.00 | 0.15 | 0.00 | 92 | 1004.8 |
| 20260505020050 | 0 | 212 | 1.6 | 8.0 | 0.00 | 0.15 | 0.00 | 91 | 1004.8 |
| 20260505015530 | 0 | 160 | 1.6 | 8.0 | 0.00 | 0.15 | 0.00 | 91 | 1004.8 |